Cloud_Cover
81 25 22 46 32 28 25 22 26 24 26 44 30 20 0 43 0 0 0 0 0 5 7 24 0 0 0 0 0 2 88 18 5 3 0 0 1 48 1 3 39 63 49 0 0
100 100 100 100 25 12 2 4 15 25 27 44 27 15 2 80 0 0 0 0 3 5 5 5 0 0 0 0 0 6 93 2 0 0 0 0 3 3 5 18 100 62 98 0 0
100 100 100 100 100 91 29 7 25 74 96 100 82 18 1 19 0 0 0 0 0 4 75 5 0 0 0 0 3 5 5 0 0 0 0 0 1 3 4 99 98 100 99 96 0
100 100 100 100 100 100 100 100 99 100 100 100 77 8 2 0 0 0 0 0 0 3 49 5 0 0 0 0 0 8 0 0 0 0 0 0 0 5 17 100 99 77 51 61 17
100 100 100 100 100 100 100 100 100 100 100 100 49 0 1 0 0 0 0 0 0 3 5 3 1 0 2 1 2 5 5 0 0 0 0 0 0 5 8 100 100 100 66 100 82
100 100 100 100 100 100 100 100 100 100 100 100 16 32 0 0 0 0 0 0 0 0 3 2 5 0 0 0 9 2 4 0 0 0 0 0 2 1 0 6 51 84 55 36 81
100 100 100 100 100 100 100 100 100 97 55 21 0 0 0 0 0 0 0 0 0 0 5 5 4 5 0 0 0 5 1 1 5 2 0 0 0 5 0 0 39 82 74 85 88
63 100 100 100 100 100 100 81 27 25 26 2 3 0 0 0 0 0 0 0 0 0 2 4 2 4 1 0 0 1 1 14 0 2 0 0 0 0 3 0 2 98 81 6 5
100 100 100 100 100 100 100 10 0 0 0 0 3 0 0 0 0 0 0 0 0 0 0 0 3 1 0 16 14 5 100 2 3 0 2 0 0 0 1 0 0 8 40 75 6
100 100 100 100 100 100 51 5 0 30 1 0 0 0 0 0 0 0 0 0 0 0 3 4 4 4 5 75 100 100 79 21 5 5 4 0 0 0 0 0 0 30 6 42 66
100 100 100 100 98 27 12 0 0 0 0 0 0 0 0 0 0 0 0 0 0 0 4 2 66 35 5 36 1 1 2 5 2 15 27 0 5 0 0 5 0 0 52 7 41
100 100 100 100 1 7 11 0 0 0 0 0 0 0 0 0 0 0 0 0 0 0 4 2 95 4 0 0 0 5 31 20 4 5 33 5 5 0 0 12 2 0 3 5 5
100 100 100 98 4 39 0 0 0 0 0 0 0 0 0 0 0 0 0 0 0 1 0 7 55 0 1 3 4 8 82 2 4 5 64 1 35 0 0 0 5 0 1 0 6
100 100 100 79 32 0 0 0 0 0 0 0 0 0 0 0 0 0 0 0 0 0 0 5 1 0 4 5 1 100 0 4 5 3 88 6 33 67 0 0 0 5 0 0 5
100 3 54 82 0 0 0 0 0 0 0 0 0 0 0 0 0 0 0 0 0 0 0 4 0 0 5 49 0 5 0 0 4 47 69 68 1 98 5 0 1 0 3 7 0
22 7 90 25 0 0 0 0 0 0 0 0 0 0 0 0 0 0 0 0 0 0 0 37 2 0 5 2 4 1 0 1 2 5 100 49 0 100 17 0 0 3 1 6 4
0 20 98 0 0 0 0 0 0 0 0 0 0 0 0 0 0 0 0 0 0 0 0 1 0 0 0 1 1 0 4 49 100 100 100 57 14 5 0 0 3 3 7 1 5
0 45 47 0 0 0 0 0 0 0 0 0 0 0 0 0 0 0 0 0 0 0 0 0 4 0 0 0 5 5 6 56 100 100 100 100 99 45 2 0 3 100 76 5 0
29 0 0 0 0 0 0 0 0 0 0 0 0 0 0 0 0 0 0 0 0 0 0 0 0 0 0 0 0 0 0 14 5 15 90 100 100 100 60 2 0 1 26 5 4
0 0 0 0 0 0 0 0 0 0 0 0 0 0 0 0 0 0 0 0 0 0 0 0 0 0 0 0 0 0 4 4 18 4 27 99 100 96 70 4 2 1 0 5 0
0 0 0 0 0 0 0 0 0 0 0 0 0 0 0 0 0 0 0 0 0 0 0 0 0 0 0 0 0 0 0 0 1 4 4 2 46 89 7 2 0 5 3 0 0
0 0 0 0 0 0 0 0 0 0 0 0 0 0 0 0 0 0 0 0 0 0 0 0 0 0 0 0 0 0 0 4 5 36 5 0 0 4 0 0 0 0 0 1 0
0 0 0 0 0 0 0 0 0 0 0 0 0 0 0 0 0 0 0 0 0 0 0 0 0 0 0 0 0 0 0 0 0 5 5 5 3 3 0 0 2 2 0 0 0
0 0 0 0 0 0 0 0 0 0 0 0 0 0 0 0 0 0 0 0 0 0 0 0 0 0 0 0 0 0 0 0 0 5 5 5 4 5 4 0 0 0 0 0 0
0 1 0 0 0 0 0 0 0 0 0 0 0 0 0 0 0 0 0 0 0 0 0 0 0 0 0 0 0 0 0 0 0 1 5 14 35 5 8 0 0 0 3 0 0
8 6 0 0 0 0 0 0 0 0 0 0 0 0 0 0 0 0 0 0 0 0 0 0 0 0 0 0 0 0 0 0 0 0 0 0 1 0 0 0 0 64 40 14 5
0 0 0 0 0 0 0 0 0 0 0 0 0 0 0 0 0 0 0 0 0 0 0 0 0 0 0 0 0 0 0 0 0 0 0 0 5 0 0 0 0 3 78 99 12